Home   Weather   Tarlac City   Past weeks

Flag for Philippines Past Weather in Tarlac City, Philippines — Yesterday and Last 2 Weeks

Now
86 °F

Broken clouds.


Feels Like: 93 °F
Forecast: 75 / 87 °F
Wind: 7 mph from Northeast

Location: Clarkfield Pampanga International Airport

Current Time: Dec 8, 2016 at 4:14:41 pm

Latest Report: Dec 8, 2016 at 3:00 pm


Visibility: N/A

Pressure: 29.71 "Hg

Humidity: 66%

Dew Point: 73 °F

Location of Tarlac CityLocation

Past Weather in Tarlac City — Graph

°F

Tarlac City Temperature Yesterday

Maximum temperature yesterday: 88 °F (at 12:00 pm)
Minimum temperature yesterday: 68 °F (at 10:00 pm)
Average temperature yesterday: 81 °F

High & Low Weather Summary for the Past Weeks

 TemperatureHumidityPressure
High90 °F (Nov 23, 3:00 pm)100% (Dec 7, 10:00 pm)30.04 "Hg (Dec 7, 10:00 pm)
Low68 °F (Dec 7, 10:00 pm)49% (Dec 3, 12:00 pm)29.71 "Hg (Dec 8, 2:00 pm)
Average81 °F78%29.89 "Hg
* Reported Nov 23 3:00 pm — Dec 8 3:00 pm, Tarlac City, Weather by CustomWeather, © 2016

Note: Actual official high and low records may vary slightly from our data, if they occured in-between our weather recording intervals... More about our weather records

Advertising

Tarlac City Weather History for the Previous 24 Hours

Scroll right to see more
 ConditionsComfort  
Time TempWeatherWind HumidityBarometerVisibility
3:00 pm
Thu, Dec 8
86 °FBroken clouds.7 mph66%29.71 "HgN/A
2:00 pm88 °FBroken clouds.9 mph66%29.71 "HgN/A
1:00 pm86 °FBroken clouds.5 mph70%29.74 "HgN/A
12:00 pm86 °FBroken clouds.2 mph70%29.77 "HgN/A
11:00 am86 °FBroken clouds.2 mph66%29.80 "HgN/A
10:00 am82 °FBroken clouds.5 mph74%29.83 "HgN/A
9:00 am81 °FBroken clouds.3 mph79%29.83 "HgN/A
8:00 am79 °FBroken clouds.2 mph79%29.83 "HgN/A
7:00 am77 °FBroken clouds.2 mph89%29.83 "HgN/A
6:00 am75 °FPartly cloudy.6 mph89%29.80 "HgN/A
5:00 am75 °FPartly cloudy.5 mph94%29.80 "HgN/A
4:00 am75 °FSprinkles. Mostly cloudy.6 mph94%29.80 "Hg5 mi
3:00 am77 °FPartly cloudy.5 mph89%29.83 "HgN/A
2:00 am77 °FLight rain. Mostly cloudy.6 mph83%29.83 "Hg5 mi
1:00 am77 °FSprinkles. Mostly cloudy.3 mph89%29.83 "HgN/A
12:00 am79 °FPartly cloudy.3 mph79%29.86 "HgN/A
11:00 pm
Wed, Dec 7
79 °FPartly cloudy.3 mph89%29.86 "HgN/A
10:00 pm68 °FPartly cloudy.2 mph100%29.83 "HgN/A
9:00 pm81 °FPartly cloudy.3 mph84%29.86 "HgN/A
8:00 pm81 °FPartly cloudy.1 mph79%29.86 "HgN/A
7:00 pm82 °FPartly cloudy.1 mph79%29.83 "HgN/A
6:00 pm82 °FPartly cloudy.1 mph79%29.83 "HgN/A
5:00 pm84 °FBroken clouds.5 mph70%29.80 "HgN/A
4:00 pm86 °FBroken clouds.6 mph66%29.77 "HgN/A
Weather by CustomWeather, © 2016

See weather overviewHow to use our weather pages